This demonstration page uses our WeatherBlox Daily Observations layout. Learn more.

Left ArrowRight Arrow

38.88101, -77.10428

Hourly Observations for January 6, 2015

Temp ( °F °C ) Dew Point ( °F °C ) Humidity (%) Winds ( mph kmh ) Pressure ( in mb ) Visibility ( mi km ) Precip ( " mm )
12:52 am 00:52 Mostly Cloudy 29 -1.7 5 -15 36 36 NNE 9 15 30.43 1030 10 16 N/A
1:52 am 01:52 Cloudy 29 -1.7 5 -15 36 36 NE 7 11 30.43 1031 10 16 N/A
2:52 am 02:52 Cloudy 29 -1.7 5 -15 36 36 E 7 11 30.41 1030 10 16 N/A
3:52 am 03:52 Cloudy 29 -1.7 4 -15.6 34 34 ESE 5 7 30.40 1030 10 16 N/A
4:42 am 04:42 Cloudy with Light Snow 27 -3 14 -10 59 59 VRB 7 11 30.42 1030 3 5 N/A
4:50 am 04:50 Cloudy with Light Snow 27 -3 16 -9 64 64 N 8 13 30.42 1030 2 3 N/A
4:52 am 04:52 Cloudy with Light Snow 25 -3.9 16 -8.9 69 69 N 7 11 30.40 1030 2 3 N/A
5:06 am 05:06 Cloudy with Light Snow 25 -4 18 -8 74 74 NNW 8 13 30.42 1030 2 2 N/A
5:13 am 05:13 Mostly Cloudy with Light Snow 25 -4 18 -8 74 74 N 8 13 30.42 1030 1 1 0.01 0.25
5:34 am 05:34 Mostly Cloudy with Snow 25 -4 19 -7 80 80 NNW 3 6 30.39 1029 1 1 N/A
5:44 am 05:44 Mostly Cloudy with Light Snow 25 -4 19 -7 80 80 N N/A 30.39 1029 1 1 N/A
5:48 am 05:48 Mostly Cloudy with Light Snow 25 -4 19 -7 80 80 N N/A 30.39 1029 1 1 N/A
5:52 am 05:52 Mostly Cloudy with Snow 24 -4.4 19 -7.2 81 81 N N/A 30.37 1029 1 1 0.05 1.27
6:20 am 06:20 Cloudy with Light Snow 25 -4 18 -8 74 74 ESE 8 13 30.36 1028 3 4 N/A
6:33 am 06:33 Cloudy with Light Snow 25 -4 18 -8 74 74 ESE 5 7 30.36 1028 3 4 0.02 0.51
6:52 am 06:52 Cloudy with Light Snow 24 -4.4 17 -8.3 75 75 ESE 5 7 30.37 1028 2 3 0.02 0.51
6:59 am 06:59 Cloudy with Light Snow 25 -4 18 -8 74 74 ESE 6 9 30.36 1028 1 2 0.01 0.25
7:13 am 07:13 Mostly Cloudy with Light Snow 25 -4 18 -8 74 74 E 6 9 30.36 1028 1 1 0.02 0.51
7:41 am 07:41 Cloudy with Snow 25 -4 18 -8 74 74 E 7 11 30.39 1029 1 1 0.04 1.02
7:50 am 07:50 Mostly Cloudy with Snow 25 -4 18 -8 74 74 E 5 7 30.39 1029 1 1 N/A
7:52 am 07:52 Mostly Cloudy with Snow 24 -4.4 18 -7.8 77 77 ESE 5 7 30.38 1029 1 1 0.05 1.27
8:11 am 08:11 Mostly Cloudy with Heavy Snow 25 -4 18 -8 74 74 E 5 7 30.39 1029 0 0 0.02 0.51
8:52 am 08:52 Cloudy with Snow 24 -4.4 19 -7.2 81 81 ESE 6 9 30.38 1029 1 1 0.05 1.27
9:21 am 09:21 Cloudy with Light Snow 25 -4 18 -8 74 74 ESE 3 6 30.36 1028 1 1 0.01 0.25
9:52 am 09:52 Cloudy with Light Snow 25 -3.9 19 -7.2 78 78 ESE 3 6 30.33 1027 1 1 0.02 0.51
10:14 am 10:14 Cloudy with Light Snow 25 -4 19 -7 80 80 ESE 3 6 30.30 1026 2 3 N/A
10:24 am 10:24 Cloudy with Light Snow 25 -4 19 -7 80 80 N N/A 30.30 1026 3 5 N/A
10:36 am 10:36 Cloudy with Light Snow 25 -4 19 -7 80 80 N N/A 30.30 1026 3 5 N/A
10:52 am 10:52 Cloudy with Light Snow 26 -3.3 20 -6.7 78 78 N N/A 30.27 1025 3 5 0.01 0.25
11:16 am 11:16 Mostly Cloudy with Light Snow 27 -3 19 -7 74 74 SE 5 7 30.24 1024 6 10 N/A
11:24 am 11:24 Cloudy 27 -3 19 -7 74 74 VRB 5 7 30.24 1024 7 11 N/A
11:45 am 11:45 Cloudy 27 -3 19 -7 74 74 SSE 6 9 30.21 1023 10 16 N/A
11:52 am 11:52 Cloudy 27 -2.8 19 -7.2 72 72 SSE 5 7 30.21 1023 10 16 N/A
12:52 pm 12:52 Cloudy 29 -1.7 20 -6.7 69 69 N N/A 30.16 1021 10 16 N/A
1:00 pm 13:00 Cloudy 28 -2 19 -7 69 69 N N/A 30.15 1021 10 16 N/A
1:52 pm 13:52 Cloudy 29 -1.7 20 -6.7 69 69 N 5 7 30.15 1021 10 16 N/A
2:52 pm 14:52 Cloudy 30 -1.1 20 -6.7 66 66 N N/A 30.15 1021 10 16 N/A
3:52 pm 15:52 Partly Cloudy 31 -0.6 20 -6.7 64 64 N 5 7 30.16 1021 10 16 N/A
4:52 pm 16:52 Partly Cloudy 31 -0.6 19 -7.2 61 61 WNW 3 6 30.16 1021 10 16 N/A
5:52 pm 17:52 Mostly Clear 31 -0.6 18 -7.8 59 59 W 5 7 30.16 1022 10 16 N/A
6:52 pm 18:52 Mostly Clear 30 -1.1 18 -7.8 61 61 NW 6 9 30.16 1021 10 16 N/A
7:52 pm 19:52 Mostly Clear 29 -1.7 18 -7.8 63 63 N N/A 30.17 1022 10 16 N/A
8:52 pm 20:52 Mostly Clear 28 -2.2 15 -9.4 58 58 N 8 13 30.14 1021 10 16 N/A
9:52 pm 21:52 Mostly Cloudy 29 -1.7 13 -10.6 51 51 NW 8 13 30.12 1020 10 16 N/A
10:52 pm 22:52 Cloudy 29 -1.7 13 -10.6 51 51 NW 8 13 30.13 1020 10 16 N/A
11:52 pm 23:52 Cloudy 29 -1.7 13 -10.6 51 51 NNW 10 17 30.11 1020 10 16 N/A

Powered by AerisWeather